Location: Unspecified
(34.8318°N, 0.0000°E)
Time: 01:30:58
(UTC+00:00)

ESTCUBE 1 - Visible Passes

Search period start: 04 April 2026 00:00
Search period end: 14 April 2026 00:00
Orbit: 621 x 630 km, 97.7° (Epoch: 29 March)

Date Brightness Start Highest point End Pass type
(mag) Time Alt. Az. Time Alt. Az. Time Alt. Az.
4 Apr ? 20:14:02 25° NE 20:14:02 25° NE 20:16:28 10° N visible
4 Apr ? 21:51:18 13° NW 21:51:18 13° NW 21:52:01 10° NW visible
5 Apr ? 20:33:08 33° NNE 20:33:08 33° NNE 20:35:47 10° N visible
6 Apr ? 20:52:14 36° N 20:52:14 36° N 20:54:52 10° N visible
7 Apr ? 19:34:02 11° ENE 19:34:02 11° ENE 19:35:11 10° NE visible
7 Apr ? 21:11:19 31° NW 21:11:19 31° NW 21:13:45 10° NNW visible
8 Apr ? 19:53:07 18° ENE 19:53:07 18° ENE 19:55:33 10° NNE visible
8 Apr ? 21:30:23 22° NW 21:30:23 22° NW 21:32:25 10° NNW visible
9 Apr ? 20:12:12 27° NE 20:12:12 27° NE 20:15:08 10° N visible
9 Apr ? 21:49:29 15° WNW 21:49:29 15° WNW 21:50:44 10° NW visible
10 Apr ? 20:31:16 39° NNE 20:31:16 39° NNE 20:34:25 10° N visible
11 Apr ? 20:50:21 47° N 20:50:21 47° N 20:53:30 10° N visible
12 Apr ? 19:32:09 11° ENE 19:32:22 11° ENE 19:33:40 10° NE visible
12 Apr ? 21:09:26 38° NW 21:09:26 38° NW 21:12:22 10° NNW visible
13 Apr ? 19:51:13 18° ENE 19:51:13 18° ENE 19:54:06 10° NNE visible
13 Apr ? 21:28:29 27° WNW 21:28:29 27° WNW 21:31:02 10° NNW visible
